Weather History for KVYS - September, 2013

Change the Weather History Date:

Friday, September 27, 2013

  Actual Average Record
Temperature  
Mean Temperature 65 °F -  
Max Temperature 82 °F 72 °F 85 °F (1973)
Min Temperature 48 °F 47 °F 33 °F (1975)
Growing Degree Days 15 (Base 50)    
Moisture  
Dew Point 50 °F    
Average Humidity 61    
Maximum Humidity 94    
Minimum Humidity 29    
Precipitation  
Precipitation 0.00 in - - ()
Sea Level Pressure  
Sea Level Pressure 30.09 in    
Wind  
Wind Speed 5 mph (ESE)    
Max Wind Speed 14 mph    
Max Gust Speed 20 mph    
Visibility 9 miles    
Events      
Averages and records for this station are not official NWS values.
T = Trace of Precipitation, MM = Missing Value Source: NWS Daily Summary

Daily Weather History Graph

Daily Weather History Graph

Search for Another Location

Airport or City:

Trip Planner

Search our weather history database for the weather conditions in past years. The results will help you decide how hot, cold, wet, or windy it might be!

Date:

Astronomy

Sep. 27, 2013 Rise Set
Actual Time 6:49 AM CDT 6:44 PM CDT
Civil Twilight 6:21 AM CDT 7:12 PM CDT
Nautical Twilight 5:49 AM CDT 7:44 PM CDT
Astronomical Twilight 5:17 AM CDT 8:16 PM CDT
Moon No Moon Rise 2:26 PM CDT (9/27)
Length of Visible Light 12h 50m
Length of Day
11h 55m
Last Quarter, 45% of the Moon is Illuminated
Sep 27
Last Quarter
Oct 4
New
Oct 11
First Quarter
Oct 18
Full
Oct 26
Last Quarter

Hourly Weather History & Observations

Time (CDT) Temp. Dew Point Humidity Pressure Visibility Wind Dir Wind Speed Gust Speed Precip Events Conditions
12:15 AM 56.3 °F 51.3 °F 83% 30.08 in 10.0 mi East 4.6 mph - N/A   Clear
12:35 AM 56.3 °F 51.8 °F 85% 30.08 in 10.0 mi East 3.5 mph - N/A   Clear
12:55 AM 55.6 °F 51.6 °F 87% 30.08 in 10.0 mi Calm Calm - N/A   Clear
1:15 AM 54.7 °F 50.9 °F 87% 30.08 in 10.0 mi ENE 4.6 mph - N/A   Clear
1:35 AM 53.6 °F 50.5 °F 89% 30.09 in 10.0 mi ENE 3.5 mph - N/A   Clear
1:55 AM 54.7 °F 51.8 °F 90% 30.09 in 10.0 mi Calm Calm - N/A   Clear
2:15 AM 52.7 °F 49.3 °F 88% 30.10 in 10.0 mi Calm Calm - N/A   Clear
2:35 AM 50.4 °F 47.5 °F 90% 30.10 in 7.0 mi Calm Calm - N/A   Clear
2:55 AM 51.1 °F 48.6 °F 91% 30.10 in 7.0 mi NE 3.5 mph - N/A   Clear
3:15 AM 49.6 °F 47.3 °F 92% 30.10 in 7.0 mi NE 4.6 mph - N/A   Clear
3:35 AM 51.4 °F 49.3 °F 92% 30.10 in 7.0 mi Calm Calm - N/A   Clear
3:55 AM 50.9 °F 48.6 °F 92% 30.10 in 7.0 mi ENE 5.8 mph - N/A   Clear
4:15 AM 50.4 °F 48.2 °F 92% 30.10 in 7.0 mi ENE 3.5 mph - N/A   Clear
4:35 AM 50.2 °F 48.0 °F 92% 30.10 in 7.0 mi ENE 3.5 mph - N/A   Clear
4:55 AM 49.6 °F 47.7 °F 93% 30.11 in 7.0 mi NE 4.6 mph - N/A   Clear
5:15 AM 50.9 °F 48.9 °F 93% 30.11 in 5.0 mi NNE 3.5 mph - N/A   Clear
5:35 AM 50.0 °F 47.8 °F 92% 30.12 in 5.0 mi NE 4.6 mph - N/A   Clear
5:55 AM 48.7 °F 46.8 °F 93% 30.12 in 5.0 mi East 4.6 mph - N/A   Clear
6:15 AM 48.7 °F 46.9 °F 93% 30.13 in 5.0 mi ENE 3.5 mph - N/A   Clear
6:35 AM 48.7 °F 46.8 °F 93% 30.13 in 5.0 mi ENE 4.6 mph - N/A   Clear
6:55 AM 49.1 °F 47.3 °F 93% 30.14 in 3.0 mi ENE 4.6 mph - N/A   Clear
7:15 AM 49.5 °F 47.7 °F 94% 30.14 in 3.0 mi ENE 4.6 mph - N/A   Clear
7:35 AM 51.6 °F 49.8 °F 94% 30.15 in 4.0 mi East 3.5 mph - N/A   Clear
7:55 AM 53.4 °F 50.9 °F 91% 30.15 in 5.0 mi Calm Calm - N/A   Clear
8:15 AM 55.4 °F 52.0 °F 88% 30.15 in 7.0 mi East 3.5 mph - N/A   Clear
8:35 AM 59.0 °F 52.5 °F 79% 30.15 in 10.0 mi SE 3.5 mph - N/A   Clear
8:55 AM 60.3 °F 51.6 °F 73% 30.15 in 10.0 mi SE 4.6 mph - N/A   Clear
9:15 AM 61.0 °F 51.8 °F 72% 30.16 in 10.0 mi SSE 3.5 mph - N/A   Clear
9:35 AM 63.0 °F 52.9 °F 70% 30.16 in 10.0 mi ESE 3.5 mph - N/A   Clear
9:55 AM 65.1 °F 53.1 °F 65% 30.16 in 10.0 mi SE 4.6 mph - N/A   Clear
10:15 AM 67.8 °F 54.0 °F 61% 30.15 in 10.0 mi SE 5.8 mph - N/A   Clear
10:35 AM 69.8 °F 54.3 °F 58% 30.15 in 10.0 mi SSE 5.8 mph - N/A   Clear
10:55 AM 72.7 °F 54.9 °F 53% 30.15 in 10.0 mi SE 6.9 mph - N/A   Clear
11:15 AM 75.2 °F 54.7 °F 49% 30.14 in 10.0 mi SE 5.8 mph - N/A   Clear
11:35 AM 75.7 °F 51.6 °F 43% 30.13 in 10.0 mi South 10.4 mph - N/A   Clear
11:55 AM 76.8 °F 51.3 °F 41% 30.12 in 10.0 mi SE 13.8 mph - N/A   Clear
12:15 PM 77.9 °F 50.4 °F 38% 30.12 in 10.0 mi SSE 11.5 mph - N/A   Clear
12:35 PM 78.1 °F 50.4 °F 38% 30.11 in 10.0 mi SE 10.4 mph - N/A   Clear
12:55 PM 79.2 °F 50.7 °F 37% 30.11 in 10.0 mi ESE 9.2 mph - N/A   Clear
1:15 PM 80.2 °F 49.6 °F 34% 30.10 in 10.0 mi SE 12.7 mph 17.3 mph N/A   Clear
1:35 PM 80.2 °F 49.8 °F 34% 30.09 in 10.0 mi SSE 10.4 mph - N/A   Clear
1:55 PM 80.2 °F 49.6 °F 34% 30.08 in 10.0 mi ESE 12.7 mph 17.3 mph N/A   Clear
2:15 PM 81.0 °F 49.1 °F 33% 30.08 in 10.0 mi SE 9.2 mph 16.1 mph N/A   Clear
2:35 PM 81.5 °F 49.1 °F 32% 30.07 in 10.0 mi ESE 11.5 mph - N/A   Clear
2:55 PM 82.2 °F 49.1 °F 31% 30.06 in 10.0 mi SE 9.2 mph 16.1 mph N/A   Clear
3:15 PM 82.4 °F 48.4 °F 30% 30.06 in 10.0 mi ESE 9.2 mph 17.3 mph N/A   Clear
3:35 PM 82.8 °F 48.4 °F 30% 30.05 in 10.0 mi SE 11.5 mph 18.4 mph N/A   Clear
3:55 PM 82.4 °F 48.0 °F 30% 30.05 in 10.0 mi SE 11.5 mph - N/A   Clear
4:15 PM 82.8 °F 47.8 °F 29% 30.04 in 10.0 mi SE 13.8 mph 19.6 mph N/A   Clear
4:35 PM 82.4 °F 46.8 °F 29% 30.04 in 10.0 mi SE 10.4 mph - N/A   Clear
4:55 PM 81.9 °F 46.9 °F 29% 30.04 in 10.0 mi SE 9.2 mph - N/A   Clear
5:15 PM 81.5 °F 46.6 °F 29% 30.04 in 10.0 mi SE 10.4 mph - N/A   Clear
5:35 PM 80.8 °F 46.8 °F 30% 30.03 in 10.0 mi SE 9.2 mph - N/A   Clear
5:55 PM 80.2 °F 47.7 °F 32% 30.03 in 10.0 mi SE 6.9 mph - N/A   Clear
6:15 PM 77.9 °F 47.3 °F 34% 30.03 in 10.0 mi SE 6.9 mph - N/A   Clear
6:35 PM 76.3 °F 47.3 °F 36% 30.03 in 10.0 mi SE 6.9 mph - N/A   Clear
6:55 PM 75.2 °F 47.5 °F 37% 30.03 in 10.0 mi SE 6.9 mph - N/A   Clear
7:15 PM 75.2 °F 48.2 °F 38% 30.04 in 10.0 mi SE 5.8 mph - N/A   Clear
7:35 PM 72.1 °F 48.6 °F 43% 30.04 in 10.0 mi SE 5.8 mph - N/A   Clear
7:55 PM 71.4 °F 48.7 °F 45% 30.04 in 10.0 mi SE 9.2 mph - N/A   Clear
8:15 PM 68.9 °F 49.3 °F 50% 30.05 in 10.0 mi SE 8.1 mph - N/A   Clear
8:35 PM 68.7 °F 49.3 °F 50% 30.05 in 10.0 mi SE 9.2 mph - N/A   Clear
8:55 PM 68.7 °F 49.3 °F 50% 30.06 in 10.0 mi SSE 9.2 mph - N/A   Clear
9:15 PM 68.4 °F 49.3 °F 50% 30.06 in 10.0 mi SSE 10.4 mph - N/A   Clear
9:35 PM 68.9 °F 49.5 °F 50% 30.06 in 10.0 mi SSE 10.4 mph - N/A   Clear
9:55 PM 68.5 °F 50.0 °F 52% 30.06 in 10.0 mi SSE 10.4 mph - N/A   Clear
10:15 PM 68.2 °F 50.4 °F 53% 30.06 in 10.0 mi SSE 9.2 mph - N/A   Clear
10:35 PM 68.0 °F 50.4 °F 53% 30.06 in 10.0 mi SSE 10.4 mph - N/A   Clear
10:55 PM 66.7 °F 50.5 °F 56% 30.06 in 10.0 mi SSE 9.2 mph - N/A   Clear
11:15 PM 64.6 °F 50.9 °F 61% 30.05 in 10.0 mi SSE 8.1 mph - N/A   Clear
11:35 PM 63.9 °F 50.7 °F 62% 30.06 in 10.0 mi SSE 9.2 mph - N/A   Clear
11:55 PM 62.8 °F 50.9 °F 65% 30.05 in 10.0 mi SSE 10.4 mph - N/A   Clear